DECAYED
Showing default

KSF3-A, 55086 (Decayed)

Orbit data source: Space-Track

KSF3-A, 55086 was a payload satellite owned by Kleos Space (LU) in LEO that was launched on Tue, 03 Jan 2023 UTC via an FALCON 9 launch vehicle from the Air Force Eastern Test Range (AFETR). Payload-class satellites include a variety of spacecraft equipped with specific instruments for various scientific and technological missions. These include communications satellites like Starlink; space stations such as the ISS; scientific satellites like the Hubble; Earth observation satellites from companies like Planet Labs, Umbra, and HawkEye 360; GPS; miniature CubeSats for education and research; and military/defense satellites.

Not visible in the next 10 days
Identifier
55086, 2023-001CF
Orbit
Decayed
Country
Flag of LULU / LUXE
Related business
Manufacturer
ISIS BV
Mission
Decayed Commercial Sigint
Bus & Motor
CUBESAT 6U, Unknown motor
Mass
~10 kg wet, ~10 kg dry
Launch date (UTC)
2023-01-03 (3 years ago)
Launch vehicle
FALCON 9
Launch site
Air Force Eastern Test Range (AFETR)
Object type
Payload
Rocket body
Debris
Shape & HBR
Box, 0.1 m
Radar Cross Section
0.080 m², Medium (>0.1 m² and < 1m²)

Expand to show TLE details & history
Last TLE update: 6 months ago

TLE from 6 months ago
0 KSF3-A
1 55086U 23001CF  25344.19674453  .08039495  24284-5  11759-2 0  9995
2 55086  97.3195  63.1050 0009463 306.0666  53.9753 16.34528175164403
Epoch: 2025-12-10T04:43Z
TLE epoch observation values (Epoch: 2025-12-10T04:43:18.727Z)
Latitude
-0.00007°
Longitude
-86.89356°
Altitude
179.998 km
Speed
7.8 km/s
True Right ascension
04h 12m 25s
True Declination
0° 00' 00"
Sunlit
Object was in full shadow at epoch
Visualization orbit readout
Latitude
Unknown
Longitude
Unknown
Altitude
Unknown
Speed
Unknown
Apparent Right ascension
Unknown
Apparent Declination
Unknown
Sunlit
N/A
Visualization observer readout
Local Sidereal Time
17:30:56
Azimuth
Unknown
Elevation
Unknown
Doppler factor
Unknown
Orbital elements
Apogee altitude
183.413 km
Perigee altitude
171.007 km
Semi-major axis
6,555.347 km
Eccentricity
0.00095
Inclination
97.3195°
RAAN
63.105°
Arg. of periapsis
306.0666°
True anomaly
54.06306°
Mean anomaly
53.9753°
Eccentric anomaly
54.01917°
Mean motion
4.08931 °/min
Orbital period
88.03 mins
BSTAR
0.0011759
Loading maneuver chart data...
Computing Atmospheric mass density...

Documentation

Showing up to 5 results
|